owner,sensor,date,latitude,longitude,vertical_datum,mass_concentration_of_oxygen_in_sea_water,qcFlag 
DISL,ioos:station:DISL:CATA:1,2015-06-01T00:00:00Z,30.3085,-88.1395,2.084,7.54,1111122 
DISL,ioos:station:DISL:CATA:1,2015-06-01T00:30:00Z,30.3085,-88.1395,2.093,7.39,1111122 
DISL,ioos:station:DISL:CATA:1,2015-06-01T01:00:00Z,30.3085,-88.1395,2.087,6.86,1111122 
DISL,ioos:station:DISL:CATA:1,2015-06-01T01:30:00Z,30.3085,-88.1395,2.071,6.71,1111122 
DISL,ioos:station:DISL:CATA:1,2015-06-01T02:00:00Z,30.3085,-88.1395,2.066,6.68,1111122 
DISL,ioos:station:DISL:CATA:1,2015-06-01T02:30:00Z,30.3085,-88.1395,2.065,6.68,1111122 
DISL,ioos:station:DISL:CATA:1,2015-06-01T03:00:00Z,30.3085,-88.1395,2.079,7.13,1111122 
DISL,ioos:station:DISL:CATA:1,2015-06-01T03:30:00Z,30.3085,-88.1395,2.097,7.19,1111122 
DISL,ioos:station:DISL:CATA:1,2015-06-01T04:00:00Z,30.3085,-88.1395,2.114,6.72,1111122 
DISL,ioos:station:DISL:CATA:1,2015-06-01T04:30:00Z,30.3085,-88.1395,2.145,6.51,1111122 
DISL,ioos:station:DISL:CATA:1,2015-06-01T05:00:00Z,30.3085,-88.1395,2.187,6.11,1111122 
DISL,ioos:station:DISL:CATA:1,2015-06-01T05:30:00Z,30.3085,-88.1395,2.167,6.65,1111122 
DISL,ioos:station:DISL:CATA:1,2015-06-01T06:00:00Z,30.3085,-88.1395,2.167,6.44,1111122 
DISL,ioos:station:DISL:CATA:1,2015-06-01T06:30:00Z,30.3085,-88.1395,2.173,6.02,1111122 
DISL,ioos:station:DISL:CATA:1,2015-06-01T07:00:00Z,30.3085,-88.1395,2.189,5.48,1111122 
DISL,ioos:station:DISL:CATA:1,2015-06-01T07:30:00Z,30.3085,-88.1395,2.212,5.49,1111122 
DISL,ioos:station:DISL:CATA:1,2015-06-01T08:00:00Z,30.3085,-88.1395,2.218,6.04,1111122 
DISL,ioos:station:DISL:CATA:1,2015-06-01T08:30:00Z,30.3085,-88.1395,2.229,5.29,1111122 
DISL,ioos:station:DISL:CATA:1,2015-06-01T09:00:00Z,30.3085,-88.1395,2.265,5.18,1111122 
DISL,ioos:station:DISL:CATA:1,2015-06-01T09:30:00Z,30.3085,-88.1395,2.296,5.49,1111122 
DISL,ioos:station:DISL:CATA:1,2015-06-01T10:00:00Z,30.3085,-88.1395,2.324,4.75,1111122 
DISL,ioos:station:DISL:CATA:1,2015-06-01T10:30:00Z,30.3085,-88.1395,2.377,4.94,1111122 
DISL,ioos:station:DISL:CATA:1,2015-06-01T11:00:00Z,30.3085,-88.1395,2.408,5.9,1111122 
DISL,ioos:station:DISL:CATA:1,2015-06-01T11:30:00Z,30.3085,-88.1395,2.433,6.2,1111122 
DISL,ioos:station:DISL:CATA:1,2015-06-01T12:00:00Z,30.3085,-88.1395,2.456,5.91,1111122 
DISL,ioos:station:DISL:CATA:1,2015-06-01T12:30:00Z,30.3085,-88.1395,2.474,5.17,1111122 
DISL,ioos:station:DISL:CATA:1,2015-06-01T13:00:00Z,30.3085,-88.1395,2.481,5.15,1111122 
DISL,ioos:station:DISL:CATA:1,2015-06-01T13:30:00Z,30.3085,-88.1395,2.505,5.58,1111122 
DISL,ioos:station:DISL:CATA:1,2015-06-01T14:00:00Z,30.3085,-88.1395,2.535,5.51,1111122 
DISL,ioos:station:DISL:CATA:1,2015-06-01T14:30:00Z,30.3085,-88.1395,2.533,5.84,1111122 
DISL,ioos:station:DISL:CATA:1,2015-06-01T15:00:00Z,30.3085,-88.1395,2.501,4.98,1111122 
DISL,ioos:station:DISL:CATA:1,2015-06-01T15:30:00Z,30.3085,-88.1395,2.508,3.85,1111122 
DISL,ioos:station:DISL:CATA:1,2015-06-01T16:00:00Z,30.3085,-88.1395,2.509,3.96,1111122 
DISL,ioos:station:DISL:CATA:1,2015-06-01T16:30:00Z,30.3085,-88.1395,2.487,4.41,1111122 
DISL,ioos:station:DISL:CATA:1,2015-06-01T17:00:00Z,30.3085,-88.1395,2.47,4.84,1111122 
DISL,ioos:station:DISL:CATA:1,2015-06-01T17:30:00Z,30.3085,-88.1395,2.456,6.66,1111122 
DISL,ioos:station:DISL:CATA:1,2015-06-01T18:00:00Z,30.3085,-88.1395,2.431,6.82,1111122 
DISL,ioos:station:DISL:CATA:1,2015-06-01T18:30:00Z,30.3085,-88.1395,2.393,7.26,1111122 
DISL,ioos:station:DISL:CATA:1,2015-06-01T19:00:00Z,30.3085,-88.1395,2.358,7.39,1111122 
DISL,ioos:station:DISL:CATA:1,2015-06-01T19:30:00Z,30.3085,-88.1395,2.313,7.48,1111122 
DISL,ioos:station:DISL:CATA:1,2015-06-01T20:00:00Z,30.3085,-88.1395,2.264,8.21,1111122 
DISL,ioos:station:DISL:CATA:1,2015-06-01T20:30:00Z,30.3085,-88.1395,2.215,7.94,1111122 
DISL,ioos:station:DISL:CATA:1,2015-06-01T21:00:00Z,30.3085,-88.1395,2.17,7.8,1111122 
DISL,ioos:station:DISL:CATA:1,2015-06-01T21:30:00Z,30.3085,-88.1395,2.142,7.76,1111122 
DISL,ioos:station:DISL:CATA:1,2015-06-01T22:00:00Z,30.3085,-88.1395,2.106,7.68,1111122 
DISL,ioos:station:DISL:CATA:1,2015-06-01T22:30:00Z,30.3085,-88.1395,2.056,7.65,1111122 
DISL,ioos:station:DISL:CATA:1,2015-06-01T23:00:00Z,30.3085,-88.1395,2.02,7.73,1111122 
DISL,ioos:station:DISL:CATA:1,2015-06-01T23:30:00Z,30.3085,-88.1395,2.008,7.63,1111122 
DISL,ioos:station:DISL:CATA:1,2015-06-02T00:00:00Z,30.3085,-88.1395,1.984,7.32,1111122 
DISL,ioos:station:DISL:CATA:1,2015-06-02T00:30:00Z,30.3085,-88.1395,1.985,7.04,1111122 
DISL,ioos:station:DISL:CATA:1,2015-06-02T01:00:00Z,30.3085,-88.1395,2.001,6.85,1111122 
DISL,ioos:station:DISL:CATA:1,2015-06-02T01:30:00Z,30.3085,-88.1395,1.989,6.73,1111122 
DISL,ioos:station:DISL:CATA:1,2015-06-02T02:00:00Z,30.3085,-88.1395,1.981,6.66,1111122 
DISL,ioos:station:DISL:CATA:1,2015-06-02T02:30:00Z,30.3085,-88.1395,1.994,6.69,1111122 
DISL,ioos:station:DISL:CATA:1,2015-06-02T03:00:00Z,30.3085,-88.1395,2.021,6.74,1111122 
DISL,ioos:station:DISL:CATA:1,2015-06-02T03:30:00Z,30.3085,-88.1395,2.033,6.78,1111122 
DISL,ioos:station:DISL:CATA:1,2015-06-02T04:00:00Z,30.3085,-88.1395,2.058,6.99,1111122 
DISL,ioos:station:DISL:CATA:1,2015-06-02T04:30:00Z,30.3085,-88.1395,2.096,5.36,1111122 
DISL,ioos:station:DISL:CATA:1,2015-06-02T05:00:00Z,30.3085,-88.1395,2.117,6.69,1111122 
DISL,ioos:station:DISL:CATA:1,2015-06-02T05:30:00Z,30.3085,-88.1395,2.146,6.74,1111122 
DISL,ioos:station:DISL:CATA:1,2015-06-02T06:00:00Z,30.3085,-88.1395,2.163,6.78,1111122 
DISL,ioos:station:DISL:CATA:1,2015-06-02T06:30:00Z,30.3085,-88.1395,2.176,6.62,1111122 
DISL,ioos:station:DISL:CATA:1,2015-06-02T07:00:00Z,30.3085,-88.1395,2.198,6.48,1111122 
DISL,ioos:station:DISL:CATA:1,2015-06-02T07:30:00Z,30.3085,-88.1395,2.226,6.47,1111122 
DISL,ioos:station:DISL:CATA:1,2015-06-02T08:00:00Z,30.3085,-88.1395,2.241,6.4,1111122 
DISL,ioos:station:DISL:CATA:1,2015-06-02T08:30:00Z,30.3085,-88.1395,2.269,6.29,1111122 
DISL,ioos:station:DISL:CATA:1,2015-06-02T09:00:00Z,30.3085,-88.1395,2.301,6.25,1111122 
DISL,ioos:station:DISL:CATA:1,2015-06-02T09:30:00Z,30.3085,-88.1395,2.337,6.29,1111122 
DISL,ioos:station:DISL:CATA:1,2015-06-02T10:00:00Z,30.3085,-88.1395,2.374,6.48,1111122 
DISL,ioos:station:DISL:CATA:1,2015-06-02T10:30:00Z,30.3085,-88.1395,2.375,6.55,1111122 
DISL,ioos:station:DISL:CATA:1,2015-06-02T11:00:00Z,30.3085,-88.1395,2.351,6.55,1111122 
DISL,ioos:station:DISL:CATA:1,2015-06-02T11:30:00Z,30.3085,-88.1395,2.388,6.52,1111122 
DISL,ioos:station:DISL:CATA:1,2015-06-02T12:00:00Z,30.3085,-88.1395,2.439,6.4,1111122 
DISL,ioos:station:DISL:CATA:1,2015-06-02T12:30:00Z,30.3085,-88.1395,2.467,6.22,1111122 
DISL,ioos:station:DISL:CATA:1,2015-06-02T13:00:00Z,30.3085,-88.1395,2.519,5.85,1111122 
DISL,ioos:station:DISL:CATA:1,2015-06-02T13:30:00Z,30.3085,-88.1395,2.546,6.18,1111122 
DISL,ioos:station:DISL:CATA:1,2015-06-02T14:00:00Z,30.3085,-88.1395,2.557,5.85,1111122 
DISL,ioos:station:DISL:CATA:1,2015-06-02T14:30:00Z,30.3085,-88.1395,2.551,4.41,1111122 
DISL,ioos:station:DISL:CATA:1,2015-06-02T15:00:00Z,30.3085,-88.1395,2.547,4.44,1111122 
DISL,ioos:station:DISL:CATA:1,2015-06-02T15:30:00Z,30.3085,-88.1395,2.546,4.43,1111122 
DISL,ioos:station:DISL:CATA:1,2015-06-02T16:00:00Z,30.3085,-88.1395,2.56,4.43,1111122 
DISL,ioos:station:DISL:CATA:1,2015-06-02T16:30:00Z,30.3085,-88.1395,2.531,4.56,1111122 
DISL,ioos:station:DISL:CATA:1,2015-06-02T17:00:00Z,30.3085,-88.1395,2.498,4.54,1111122 
DISL,ioos:station:DISL:CATA:1,2015-06-02T17:30:00Z,30.3085,-88.1395,2.465,4.21,1111122 
DISL,ioos:station:DISL:CATA:1,2015-06-02T18:00:00Z,30.3085,-88.1395,2.455,4.4,1111122 
DISL,ioos:station:DISL:CATA:1,2015-06-02T18:30:00Z,30.3085,-88.1395,2.438,4.84,1111122 
DISL,ioos:station:DISL:CATA:1,2015-06-02T19:00:00Z,30.3085,-88.1395,2.398,7.08,1111122 
DISL,ioos:station:DISL:CATA:1,2015-06-02T19:30:00Z,30.3085,-88.1395,2.352,7.34,1111122 
DISL,ioos:station:DISL:CATA:1,2015-06-02T20:00:00Z,30.3085,-88.1395,2.295,7.55,1111122 
DISL,ioos:station:DISL:CATA:1,2015-06-02T20:30:00Z,30.3085,-88.1395,2.26,7.89,1111122 
DISL,ioos:station:DISL:CATA:1,2015-06-02T21:00:00Z,30.3085,-88.1395,2.217,7.83,1111122 
DISL,ioos:station:DISL:CATA:1,2015-06-02T21:30:00Z,30.3085,-88.1395,2.171,7.72,1111122 
DISL,ioos:station:DISL:CATA:1,2015-06-02T22:00:00Z,30.3085,-88.1395,2.122,7.72,1111122 
DISL,ioos:station:DISL:CATA:1,2015-06-02T22:30:00Z,30.3085,-88.1395,2.09,7.87,1111122 
DISL,ioos:station:DISL:CATA:1,2015-06-02T23:00:00Z,30.3085,-88.1395,2.054,7.87,1111122 
DISL,ioos:station:DISL:CATA:1,2015-06-02T23:30:00Z,30.3085,-88.1395,2.036,7.84,1111122 
DISL,ioos:station:DISL:CATA:1,2015-06-03T00:00:00Z,30.3085,-88.1395,2.021,7.81,1111122 
DISL,ioos:station:DISL:CATA:1,2015-06-03T00:30:00Z,30.3085,-88.1395,2.002,7.8,1111122 
DISL,ioos:station:DISL:CATA:1,2015-06-03T01:00:00Z,30.3085,-88.1395,1.996,7.78,1111122 
DISL,ioos:station:DISL:CATA:1,2015-06-03T01:30:00Z,30.3085,-88.1395,1.992,7.71,1111122 
DISL,ioos:station:DISL:CATA:1,2015-06-03T02:00:00Z,30.3085,-88.1395,2.004,7.64,1111122 
DISL,ioos:station:DISL:CATA:1,2015-06-03T02:30:00Z,30.3085,-88.1395,2.012,7.6,1111122 
DISL,ioos:station:DISL:CATA:1,2015-06-03T03:00:00Z,30.3085,-88.1395,2.034,7.61,1111122 
DISL,ioos:station:DISL:CATA:1,2015-06-03T03:30:00Z,30.3085,-88.1395,2.055,7.59,1111122 
DISL,ioos:station:DISL:CATA:1,2015-06-03T04:00:00Z,30.3085,-88.1395,2.067,7.53,1111122 
DISL,ioos:station:DISL:CATA:1,2015-06-03T04:30:00Z,30.3085,-88.1395,2.085,6.87,1111122 
DISL,ioos:station:DISL:CATA:1,2015-06-03T05:00:00Z,30.3085,-88.1395,2.096,7.1,1111122 
DISL,ioos:station:DISL:CATA:1,2015-06-03T05:30:00Z,30.3085,-88.1395,2.116,7.12,1111122 
DISL,ioos:station:DISL:CATA:1,2015-06-03T06:00:00Z,30.3085,-88.1395,2.123,7.21,1111122 
DISL,ioos:station:DISL:CATA:1,2015-06-03T06:30:00Z,30.3085,-88.1395,2.141,7.18,1111122 
DISL,ioos:station:DISL:CATA:1,2015-06-03T07:00:00Z,30.3085,-88.1395,2.176,7.1,1111122 
DISL,ioos:station:DISL:CATA:1,2015-06-03T07:30:00Z,30.3085,-88.1395,2.206,6.91,1111122 
DISL,ioos:station:DISL:CATA:1,2015-06-03T08:00:00Z,30.3085,-88.1395,2.195,6.71,1111122 
DISL,ioos:station:DISL:CATA:1,2015-06-03T08:30:00Z,30.3085,-88.1395,2.219,6.59,1111122 
DISL,ioos:station:DISL:CATA:1,2015-06-03T09:00:00Z,30.3085,-88.1395,2.263,6.31,1111122 
DISL,ioos:station:DISL:CATA:1,2015-06-03T09:30:00Z,30.3085,-88.1395,2.295,5.89,1111122 
DISL,ioos:station:DISL:CATA:1,2015-06-03T10:00:00Z,30.3085,-88.1395,2.316,6.06,1111122 
DISL,ioos:station:DISL:CATA:1,2015-06-03T10:30:00Z,30.3085,-88.1395,2.338,6.17,1111122 
DISL,ioos:station:DISL:CATA:1,2015-06-03T11:00:00Z,30.3085,-88.1395,2.359,6.17,1111122 
DISL,ioos:station:DISL:CATA:1,2015-06-03T11:30:00Z,30.3085,-88.1395,2.366,4.49,1111122 
DISL,ioos:station:DISL:CATA:1,2015-06-03T12:00:00Z,30.3085,-88.1395,2.388,3.81,1111122 
DISL,ioos:station:DISL:CATA:1,2015-06-03T12:30:00Z,30.3085,-88.1395,2.409,3.58,1111122 
DISL,ioos:station:DISL:CATA:1,2015-06-03T13:00:00Z,30.3085,-88.1395,2.437,3.45,1111122 
DISL,ioos:station:DISL:CATA:1,2015-06-03T13:30:00Z,30.3085,-88.1395,2.468,3.46,1111122 
DISL,ioos:station:DISL:CATA:1,2015-06-03T14:00:00Z,30.3085,-88.1395,2.495,3.58,1111122 
DISL,ioos:station:DISL:CATA:1,2015-06-03T14:30:00Z,30.3085,-88.1395,2.504,3.69,1111122 
DISL,ioos:station:DISL:CATA:1,2015-06-03T15:00:00Z,30.3085,-88.1395,2.541,3.7,1111122 
DISL,ioos:station:DISL:CATA:1,2015-06-03T15:30:00Z,30.3085,-88.1395,2.559,3.75,1111122 
DISL,ioos:station:DISL:CATA:1,2015-06-03T16:00:00Z,30.3085,-88.1395,2.575,4.11,1111122 
DISL,ioos:station:DISL:CATA:1,2015-06-03T16:30:00Z,30.3085,-88.1395,2.582,4.75,1111122 
DISL,ioos:station:DISL:CATA:1,2015-06-03T17:00:00Z,30.3085,-88.1395,2.565,4.92,1111122 
DISL,ioos:station:DISL:CATA:1,2015-06-03T17:30:00Z,30.3085,-88.1395,2.557,4.97,1111122 
DISL,ioos:station:DISL:CATA:1,2015-06-03T18:00:00Z,30.3085,-88.1395,2.548,4.88,1111122 
DISL,ioos:station:DISL:CATA:1,2015-06-03T18:30:00Z,30.3085,-88.1395,2.522,3.51,1111122 
DISL,ioos:station:DISL:CATA:1,2015-06-03T19:00:00Z,30.3085,-88.1395,2.491,2.83,1111122 
DISL,ioos:station:DISL:CATA:1,2015-06-03T19:30:00Z,30.3085,-88.1395,2.453,4.4,1111122 
DISL,ioos:station:DISL:CATA:1,2015-06-03T20:00:00Z,30.3085,-88.1395,2.412,6.63,1111122 
DISL,ioos:station:DISL:CATA:1,2015-06-03T20:30:00Z,30.3085,-88.1395,2.366,7.89,1111122 
DISL,ioos:station:DISL:CATA:1,2015-06-03T21:00:00Z,30.3085,-88.1395,2.32,8.33,1111122 
DISL,ioos:station:DISL:CATA:1,2015-06-03T21:30:00Z,30.3085,-88.1395,2.271,8.43,1111122 
DISL,ioos:station:DISL:CATA:1,2015-06-03T22:00:00Z,30.3085,-88.1395,2.223,8.35,1111122 
DISL,ioos:station:DISL:CATA:1,2015-06-03T22:30:00Z,30.3085,-88.1395,2.168,8.3,1111122 
DISL,ioos:station:DISL:CATA:1,2015-06-03T23:00:00Z,30.3085,-88.1395,2.128,8.18,1111122 
DISL,ioos:station:DISL:CATA:1,2015-06-03T23:30:00Z,30.3085,-88.1395,2.09,8.18,1111122 
DISL,ioos:station:DISL:CATA:1,2015-06-04T00:00:00Z,30.3085,-88.1395,2.063,8.27,1111122 
DISL,ioos:station:DISL:CATA:1,2015-06-04T00:30:00Z,30.3085,-88.1395,2.039,8.2,1111122 
DISL,ioos:station:DISL:CATA:1,2015-06-04T01:00:00Z,30.3085,-88.1395,2.014,8.14,1111122 
DISL,ioos:station:DISL:CATA:1,2015-06-04T01:30:00Z,30.3085,-88.1395,2.005,7.93,1111122 
DISL,ioos:station:DISL:CATA:1,2015-06-04T02:00:00Z,30.3085,-88.1395,1.999,7.68,1111122 
DISL,ioos:station:DISL:CATA:1,2015-06-04T02:30:00Z,30.3085,-88.1395,1.998,7.51,1111122 
DISL,ioos:station:DISL:CATA:1,2015-06-04T03:00:00Z,30.3085,-88.1395,2.004,7.25,1111122 
DISL,ioos:station:DISL:CATA:1,2015-06-04T03:30:00Z,30.3085,-88.1395,2.028,7.04,1111122 
DISL,ioos:station:DISL:CATA:1,2015-06-04T04:00:00Z,30.3085,-88.1395,2.014,7.01,1111122 
DISL,ioos:station:DISL:CATA:1,2015-06-04T04:30:00Z,30.3085,-88.1395,2.027,6.96,1111122 
DISL,ioos:station:DISL:CATA:1,2015-06-04T05:00:00Z,30.3085,-88.1395,2.029,6.96,1111122 
DISL,ioos:station:DISL:CATA:1,2015-06-04T05:30:00Z,30.3085,-88.1395,2.075,7.04,1111122 
DISL,ioos:station:DISL:CATA:1,2015-06-04T06:00:00Z,30.3085,-88.1395,2.097,7.04,1111122 
DISL,ioos:station:DISL:CATA:1,2015-06-04T06:30:00Z,30.3085,-88.1395,2.106,6.78,1111122 
DISL,ioos:station:DISL:CATA:1,2015-06-04T07:00:00Z,30.3085,-88.1395,2.12,6.67,1111122 
DISL,ioos:station:DISL:CATA:1,2015-06-04T07:30:00Z,30.3085,-88.1395,2.138,6.73,1111122 
DISL,ioos:station:DISL:CATA:1,2015-06-04T08:00:00Z,30.3085,-88.1395,2.165,6.72,1111122 
DISL,ioos:station:DISL:CATA:1,2015-06-04T08:30:00Z,30.3085,-88.1395,2.189,6.68,1111122 
DISL,ioos:station:DISL:CATA:1,2015-06-04T09:00:00Z,30.3085,-88.1395,2.22,6.41,1111122 
DISL,ioos:station:DISL:CATA:1,2015-06-04T09:30:00Z,30.3085,-88.1395,2.243,6.37,1111122 
DISL,ioos:station:DISL:CATA:1,2015-06-04T10:00:00Z,30.3085,-88.1395,2.268,6.44,1111122 
DISL,ioos:station:DISL:CATA:1,2015-06-04T10:30:00Z,30.3085,-88.1395,2.298,6.43,1111122 
DISL,ioos:station:DISL:CATA:1,2015-06-04T11:00:00Z,30.3085,-88.1395,2.31,6.58,1111122 
DISL,ioos:station:DISL:CATA:1,2015-06-04T11:30:00Z,30.3085,-88.1395,2.334,6.65,1111122 
DISL,ioos:station:DISL:CATA:1,2015-06-04T12:00:00Z,30.3085,-88.1395,2.366,6.71,1111122 
DISL,ioos:station:DISL:CATA:1,2015-06-04T12:30:00Z,30.3085,-88.1395,2.403,5.44,1111122 
DISL,ioos:station:DISL:CATA:1,2015-06-04T13:00:00Z,30.3085,-88.1395,2.44,5.24,1111122 
DISL,ioos:station:DISL:CATA:1,2015-06-04T13:30:00Z,30.3085,-88.1395,2.469,5.05,1111122 
DISL,ioos:station:DISL:CATA:1,2015-06-04T14:00:00Z,30.3085,-88.1395,2.502,5.04,1111122 
DISL,ioos:station:DISL:CATA:1,2015-06-04T14:30:00Z,30.3085,-88.1395,2.528,5.08,1111122 
DISL,ioos:station:DISL:CATA:1,2015-06-04T15:00:00Z,30.3085,-88.1395,2.56,4.93,1111122 
DISL,ioos:station:DISL:CATA:1,2015-06-04T15:30:00Z,30.3085,-88.1395,2.587,5.43,1111122 
DISL,ioos:station:DISL:CATA:1,2015-06-04T16:00:00Z,30.3085,-88.1395,2.605,6.17,1111122 
DISL,ioos:station:DISL:CATA:1,2015-06-04T16:30:00Z,30.3085,-88.1395,2.607,6.24,1111122 
DISL,ioos:station:DISL:CATA:1,2015-06-04T17:00:00Z,30.3085,-88.1395,2.595,6.79,1111122 
DISL,ioos:station:DISL:CATA:1,2015-06-04T17:30:00Z,30.3085,-88.1395,2.582,6.3,1111122 
DISL,ioos:station:DISL:CATA:1,2015-06-04T18:00:00Z,30.3085,-88.1395,2.564,5.83,1111122 
DISL,ioos:station:DISL:CATA:1,2015-06-04T18:30:00Z,30.3085,-88.1395,2.541,5.23,1111122 
DISL,ioos:station:DISL:CATA:1,2015-06-04T19:00:00Z,30.3085,-88.1395,2.521,4.44,1111122 
DISL,ioos:station:DISL:CATA:1,2015-06-04T19:30:00Z,30.3085,-88.1395,2.497,3.87,1111122 
DISL,ioos:station:DISL:CATA:1,2015-06-04T20:00:00Z,30.3085,-88.1395,2.47,5.38,1111122 
DISL,ioos:station:DISL:CATA:1,2015-06-04T20:30:00Z,30.3085,-88.1395,2.434,5.41,1111122 
DISL,ioos:station:DISL:CATA:1,2015-06-04T21:00:00Z,30.3085,-88.1395,2.401,7.51,1111122 
DISL,ioos:station:DISL:CATA:1,2015-06-04T21:30:00Z,30.3085,-88.1395,2.35,8.33,1111122 
DISL,ioos:station:DISL:CATA:1,2015-06-04T22:00:00Z,30.3085,-88.1395,2.29,8.65,1111122 
DISL,ioos:station:DISL:CATA:1,2015-06-04T22:30:00Z,30.3085,-88.1395,2.236,8.94,1111122 
DISL,ioos:station:DISL:CATA:1,2015-06-04T23:00:00Z,30.3085,-88.1395,2.179,8.83,1111122 
DISL,ioos:station:DISL:CATA:1,2015-06-04T23:30:00Z,30.3085,-88.1395,2.133,8.78,1111122 
DISL,ioos:station:DISL:CATA:1,2015-06-05T00:00:00Z,30.3085,-88.1395,2.092,8.83,1111122 
DISL,ioos:station:DISL:CATA:1,2015-06-05T00:30:00Z,30.3085,-88.1395,2.058,8.86,1111122 
DISL,ioos:station:DISL:CATA:1,2015-06-05T01:00:00Z,30.3085,-88.1395,2.028,8.83,1111122 
DISL,ioos:station:DISL:CATA:1,2015-06-05T01:30:00Z,30.3085,-88.1395,2.005,8.78,1111122 
DISL,ioos:station:DISL:CATA:1,2015-06-05T02:00:00Z,30.3085,-88.1395,1.992,8.74,1111122 
DISL,ioos:station:DISL:CATA:1,2015-06-05T02:30:00Z,30.3085,-88.1395,1.974,8.69,1111122 
DISL,ioos:station:DISL:CATA:1,2015-06-05T03:00:00Z,30.3085,-88.1395,1.966,8.58,1111122 
DISL,ioos:station:DISL:CATA:1,2015-06-05T03:30:00Z,30.3085,-88.1395,1.967,8.56,1111122 
DISL,ioos:station:DISL:CATA:1,2015-06-05T04:00:00Z,30.3085,-88.1395,1.97,8.81,1111122 
DISL,ioos:station:DISL:CATA:1,2015-06-05T04:30:00Z,30.3085,-88.1395,2.005,8.7,1111122 
DISL,ioos:station:DISL:CATA:1,2015-06-05T05:00:00Z,30.3085,-88.1395,1.993,8.73,1111122 
DISL,ioos:station:DISL:CATA:1,2015-06-05T05:30:00Z,30.3085,-88.1395,1.974,8.68,1111122 
DISL,ioos:station:DISL:CATA:1,2015-06-05T06:00:00Z,30.3085,-88.1395,2.007,8.64,1111122 
DISL,ioos:station:DISL:CATA:1,2015-06-05T06:30:00Z,30.3085,-88.1395,2.047,8.83,1111122 
DISL,ioos:station:DISL:CATA:1,2015-06-05T07:00:00Z,30.3085,-88.1395,2.079,7.94,1111122 
DISL,ioos:station:DISL:CATA:1,2015-06-05T07:30:00Z,30.3085,-88.1395,2.101,8.52,1111122 
DISL,ioos:station:DISL:CATA:1,2015-06-05T08:00:00Z,30.3085,-88.1395,2.122,8.39,1111122 
DISL,ioos:station:DISL:CATA:1,2015-06-05T08:30:00Z,30.3085,-88.1395,2.139,8.35,1111122 
DISL,ioos:station:DISL:CATA:1,2015-06-05T09:00:00Z,30.3085,-88.1395,2.164,8.25,1111122 
DISL,ioos:station:DISL:CATA:1,2015-06-05T09:30:00Z,30.3085,-88.1395,2.193,7.97,1111122 
DISL,ioos:station:DISL:CATA:1,2015-06-05T10:00:00Z,30.3085,-88.1395,2.229,7.87,1111122 
DISL,ioos:station:DISL:CATA:1,2015-06-05T10:30:00Z,30.3085,-88.1395,2.249,7.71,1111122 
DISL,ioos:station:DISL:CATA:1,2015-06-05T11:00:00Z,30.3085,-88.1395,2.279,7.54,1111122 
DISL,ioos:station:DISL:CATA:1,2015-06-05T11:30:00Z,30.3085,-88.1395,2.294,7.4,1111122 
DISL,ioos:station:DISL:CATA:1,2015-06-05T12:00:00Z,30.3085,-88.1395,2.321,6.75,1111122 
DISL,ioos:station:DISL:CATA:1,2015-06-05T12:30:00Z,30.3085,-88.1395,2.337,6.44,1111122 
DISL,ioos:station:DISL:CATA:1,2015-06-05T13:00:00Z,30.3085,-88.1395,2.364,6.32,1111122 
DISL,ioos:station:DISL:CATA:1,2015-06-05T13:30:00Z,30.3085,-88.1395,2.391,6.27,1111122 
DISL,ioos:station:DISL:CATA:1,2015-06-05T14:00:00Z,30.3085,-88.1395,2.42,6.21,1111122 
DISL,ioos:station:DISL:CATA:1,2015-06-05T14:30:00Z,30.3085,-88.1395,2.442,6.19,1111122 
DISL,ioos:station:DISL:CATA:1,2015-06-05T15:00:00Z,30.3085,-88.1395,2.466,6.17,1111122 
DISL,ioos:station:DISL:CATA:1,2015-06-05T15:30:00Z,30.3085,-88.1395,2.485,4.95,1111122 
DISL,ioos:station:DISL:CATA:1,2015-06-05T16:00:00Z,30.3085,-88.1395,2.502,4.6,1111122 
DISL,ioos:station:DISL:CATA:1,2015-06-05T16:30:00Z,30.3085,-88.1395,2.515,4.62,1111122 
DISL,ioos:station:DISL:CATA:1,2015-06-05T17:00:00Z,30.3085,-88.1395,2.521,4.46,1111122 
DISL,ioos:station:DISL:CATA:1,2015-06-05T17:30:00Z,30.3085,-88.1395,2.515,4.43,1111122 
DISL,ioos:station:DISL:CATA:1,2015-06-05T18:00:00Z,30.3085,-88.1395,2.512,4.5,1111122 
DISL,ioos:station:DISL:CATA:1,2015-06-05T18:30:00Z,30.3085,-88.1395,2.499,4.34,1111122 
DISL,ioos:station:DISL:CATA:1,2015-06-05T19:00:00Z,30.3085,-88.1395,2.481,4.16,1111122 
DISL,ioos:station:DISL:CATA:1,2015-06-05T19:30:00Z,30.3085,-88.1395,2.469,4.23,1111122 
DISL,ioos:station:DISL:CATA:1,2015-06-05T20:00:00Z,30.3085,-88.1395,2.444,3.72,1111122 
DISL,ioos:station:DISL:CATA:1,2015-06-05T20:30:00Z,30.3085,-88.1395,2.418,3.86,1111122 
DISL,ioos:station:DISL:CATA:1,2015-06-05T21:00:00Z,30.3085,-88.1395,2.387,2.41,1111122 
DISL,ioos:station:DISL:CATA:1,2015-06-05T21:30:00Z,30.3085,-88.1395,2.356,2.46,1111122 
DISL,ioos:station:DISL:CATA:1,2015-06-05T22:00:00Z,30.3085,-88.1395,2.311,4.81,1111122 
DISL,ioos:station:DISL:CATA:1,2015-06-05T22:30:00Z,30.3085,-88.1395,2.269,7.49,1111122 
DISL,ioos:station:DISL:CATA:1,2015-06-05T23:00:00Z,30.3085,-88.1395,2.223,8.2,1111122 
DISL,ioos:station:DISL:CATA:1,2015-06-05T23:30:00Z,30.3085,-88.1395,2.18,8.42,1111122 
DISL,ioos:station:DISL:CATA:1,2015-06-06T00:00:00Z,30.3085,-88.1395,2.141,8.57,1111122 
DISL,ioos:station:DISL:CATA:1,2015-06-06T00:30:00Z,30.3085,-88.1395,2.099,8.74,1111122 
DISL,ioos:station:DISL:CATA:1,2015-06-06T01:00:00Z,30.3085,-88.1395,2.065,8.7,1111122 
DISL,ioos:station:DISL:CATA:1,2015-06-06T01:30:00Z,30.3085,-88.1395,2.035,8.61,1111122 
DISL,ioos:station:DISL:CATA:1,2015-06-06T02:00:00Z,30.3085,-88.1395,2.017,8.67,1111122 
DISL,ioos:station:DISL:CATA:1,2015-06-06T02:30:00Z,30.3085,-88.1395,1.989,8.67,1111122 
DISL,ioos:station:DISL:CATA:1,2015-06-06T03:00:00Z,30.3085,-88.1395,1.984,8.64,1111122 
DISL,ioos:station:DISL:CATA:1,2015-06-06T03:30:00Z,30.3085,-88.1395,1.988,8.61,1111122 
DISL,ioos:station:DISL:CATA:1,2015-06-06T04:00:00Z,30.3085,-88.1395,1.983,8.49,1111122 
DISL,ioos:station:DISL:CATA:1,2015-06-06T04:30:00Z,30.3085,-88.1395,1.981,8.53,1111122 
DISL,ioos:station:DISL:CATA:1,2015-06-06T05:00:00Z,30.3085,-88.1395,1.977,8.45,1111122 
DISL,ioos:station:DISL:CATA:1,2015-06-06T05:30:00Z,30.3085,-88.1395,1.984,8.42,1111122 
DISL,ioos:station:DISL:CATA:1,2015-06-06T06:00:00Z,30.3085,-88.1395,1.984,8.39,1111122 
DISL,ioos:station:DISL:CATA:1,2015-06-06T06:30:00Z,30.3085,-88.1395,1.996,8.34,1111122 
DISL,ioos:station:DISL:CATA:1,2015-06-06T07:00:00Z,30.3085,-88.1395,1.999,8.11,1111122 
DISL,ioos:station:DISL:CATA:1,2015-06-06T07:30:00Z,30.3085,-88.1395,2.048,7.57,1111122 
DISL,ioos:station:DISL:CATA:1,2015-06-06T08:00:00Z,30.3085,-88.1395,2.052,7.45,1111122 
DISL,ioos:station:DISL:CATA:1,2015-06-06T08:30:00Z,30.3085,-88.1395,2.08,7.77,1111122 
DISL,ioos:station:DISL:CATA:1,2015-06-06T09:00:00Z,30.3085,-88.1395,2.103,7.67,1111122 
DISL,ioos:station:DISL:CATA:1,2015-06-06T09:30:00Z,30.3085,-88.1395,2.125,7.72,1111122 
DISL,ioos:station:DISL:CATA:1,2015-06-06T10:00:00Z,30.3085,-88.1395,2.135,7.59,1111122 
DISL,ioos:station:DISL:CATA:1,2015-06-06T10:30:00Z,30.3085,-88.1395,2.16,7.23,1111122 
DISL,ioos:station:DISL:CATA:1,2015-06-06T11:00:00Z,30.3085,-88.1395,2.19,7.39,1111122 
DISL,ioos:station:DISL:CATA:1,2015-06-06T11:30:00Z,30.3085,-88.1395,2.209,7.19,1111122 
DISL,ioos:station:DISL:CATA:1,2015-06-06T12:00:00Z,30.3085,-88.1395,2.228,6.29,1111122 
DISL,ioos:station:DISL:CATA:1,2015-06-06T12:30:00Z,30.3085,-88.1395,2.254,5.81,1111122 
DISL,ioos:station:DISL:CATA:1,2015-06-06T13:00:00Z,30.3085,-88.1395,2.286,5.38,1111122 
DISL,ioos:station:DISL:CATA:1,2015-06-06T13:30:00Z,30.3085,-88.1395,2.309,5.29,1111122 
DISL,ioos:station:DISL:CATA:1,2015-06-06T14:00:00Z,30.3085,-88.1395,2.324,4.99,1111122 
DISL,ioos:station:DISL:CATA:1,2015-06-06T14:30:00Z,30.3085,-88.1395,2.346,4.76,1111122 
DISL,ioos:station:DISL:CATA:1,2015-06-06T15:00:00Z,30.3085,-88.1395,2.375,4.75,1111122 
DISL,ioos:station:DISL:CATA:1,2015-06-06T15:30:00Z,30.3085,-88.1395,2.397,4.77,1111122 